CW4517 Weather Reports


time (UTC)temp
F
wind
direction
speed
knots
gust
knots
rain 1hr
in
rain 24hr
in
rain mn
in
humidity
%
barometer
mb
20260504234808 69 201 7.0 13.0 0.00 0.00 0.00 67 995.1
20260504234301 68 213 7.8 20.0 0.00 0.00 0.00 67 995.1
20260504233756 67 209 7.0 20.0 0.00 0.00 0.00 70 995.1
20260504233246 68 184 7.0 13.0 0.00 0.00 0.00 70 994.9
20260504233006 68 236 6.1 13.0 0.00 0.00 0.00 69 994.9
20260504232237 67 238 7.8 18.2 0.00 0.00 0.00 72 994.9
20260504231727 67 186 9.6 23.5 0.00 0.00 0.00 71 994.8
20260504231225 69 229 7.8 23.5 0.00 0.00 0.00 69 994.8
20260504230719 71 199 5.2 10.4 0.00 0.00 0.00 66 994.8
20260504230432 71 226 5.2 15.6 0.00 0.00 0.00 64 995.7
20260504225659 70 208 3.5 15.6 0.00 0.00 0.00 65 995.7
20260504225424 70 252 2.6 6.1 0.00 0.00 0.00 64 995.7
20260504224923 72 245 3.5 8.7 0.00 0.00 0.00 60 995.1
20260504224159 74 273 5.2 11.3 0.00 0.00 0.00 56 995.1
20260504223700 75 269 7.8 19.1 0.00 0.00 0.00 54 995.1
20260504223204 75 247 9.6 20.0 0.00 0.00 0.00 53 994.9
20260504222700 75 232 8.7 20.0 0.00 0.00 0.00 53 994.9
20260504222159 75 217 8.7 18.2 0.00 0.00 0.00 53 994.9
20260504221659 75 223 7.8 18.2 0.00 0.00 0.00 53 995.2
20260504221416 75 215 7.0 18.2 0.00 0.00 0.00 52 995.2
20260504220642 76 227 7.8 14.8 0.00 0.00 0.00 52 995.2
20260504220132 76 202 8.7 17.4 0.00 0.00 0.00 51 995.2
20260504215626 76 215 9.6 21.7 0.00 0.00 0.00 49 995.2
20260504215119 76 248 9.6 21.7 0.00 0.00 0.00 48 995.2
20260504214833 76 207 9.6 21.7 0.00 0.00 0.00 48 995.1
20260504214326 77 231 10.4 21.7 0.00 0.00 0.00 47 995.1
20260504213824 78 222 10.4 20.9 0.00 0.00 0.00 47 995.1
20260504213056 78 230 9.6 20.0 0.00 0.00 0.00 46 995.4
20260504212546 78 200 9.6 20.0 0.00 0.00 0.00 46 995.4
20260504212306 78 227 10.4 20.0 0.00 0.00 0.00 46 995.4
20260504211538 78 199 10.4 20.0 0.00 0.00 0.00 47 995.6
20260504211032 78 187 9.6 18.2 0.00 0.00 0.00 49 995.6
20260504210526 78 175 8.7 23.5 0.00 0.00 0.00 47 995.6
20260504210020 78 238 10.4 23.5 0.00 0.00 0.00 45 995.9
20260504205515 78 196 10.4 20.9 0.00 0.00 0.00 47 995.9
20260504205009 78 227 9.6 19.1 0.00 0.00 0.00 47 995.9
20260504204501 79 169 10.4 24.3 0.00 0.00 0.00 47 995.7
20260504203955 79 201 10.4 24.3 0.00 0.00 0.00 47 995.7
20260504203450 79 211 9.6 19.1 0.00 0.00 0.00 43 995.9
20260504202939 79 220 9.6 19.1 0.00 0.00 0.00 42 995.9
20260504202656 80 189 7.8 18.2 0.00 0.00 0.00 42 995.9
20260504201931 79 248 7.8 15.6 0.00 0.00 0.00 42 996.1
20260504201425 79 213 8.7 15.6 0.00 0.00 0.00 41 996.1
20260504201136 79 225 7.8 15.6 0.00 0.00 0.00 41 996.1
20260504200415 78 239 7.8 15.6 0.00 0.00 0.00 38 996.4
20260504195904 78 241 8.7 17.4 0.00 0.00 0.00 43 996.4
20260504195402 78 212 7.8 17.4 0.00 0.00 0.00 42 996.4
20260504195124 79 213 7.8 20.0 0.00 0.00 0.00 38 996.4
20260504194359 79 233 7.0 20.0 0.00 0.00 0.00 38 996.4
20260504194122 79 210 6.1 20.0 0.00 0.00 0.00 40 996.4
20260504193359 78 197 7.0 20.0 0.00 0.00 0.00 40 996.4
20260504193122 79 235 8.7 21.7 0.00 0.00 0.00 38 996.4
20260504192355 78 255 9.6 21.7 0.00 0.00 0.00 39 996.4
20260504191854 78 240 8.7 25.2 0.00 0.00 0.00 40 996.4
20260504191354 79 263 8.7 25.2 0.00 0.00 0.00 39 996.4
20260504190854 79 271 8.7 18.2 0.00 0.00 0.00 41 996.4
20260504190352 78 209 8.7 22.6 0.00 0.00 0.00 40 996.7
20260504190117 78 237 9.6 22.6 0.00 0.00 0.00 41 996.7
20260504185351 78 225 9.6 18.2 0.00 0.00 0.00 41 996.7
20260504185114 78 187 8.7 18.2 0.00 0.00 0.00 43 996.9
20260504184350 77 262 9.6 19.1 0.00 0.00 0.00 43 996.9
20260504183851 77 221 9.6 19.1 0.00 0.00 0.00 44 996.9
20260504183610 77 222 8.7 16.5 0.00 0.00 0.00 45 997.0
20260504182847 77 228 8.7 17.4 0.00 0.00 0.00 47 997.0
20260504182338 77 282 8.7 17.4 0.00 0.00 0.00 44 997.0
20260504182324 76 212 8.7 19.1 0.00 0.00 0.00 44 997.0
20260504181338 76 235 8.7 19.1 0.00 0.00 0.00 45 997.0
20260504180838 76 232 8.7 20.0 0.00 0.00 0.00 45 997.0
20260504180339 76 232 8.7 20.0 0.00 0.00 0.00 46 997.3
20260504180105 76 204 9.6 19.1 0.00 0.00 0.00 47 997.3
20260504175338 76 294 8.7 16.5 0.00 0.00 0.00 48 997.3
20260504174841 75 232 7.8 13.9 0.00 0.00 0.00 51 997.5
20260504174340 75 248 7.8 20.0 0.00 0.00 0.00 51 997.5
20260504174101 74 221 7.8 20.0 0.00 0.00 0.00 52 997.5
20260504173333 74 236 7.8 14.8 0.00 0.00 0.00 54 997.9
20260504172822 74 220 7.8 17.4 0.00 0.00 0.00 53 997.9
20260504172321 73 207 7.8 17.4 0.00 0.00 0.00 54 997.9
20260504171815 74 234 7.0 13.0 0.00 0.00 0.00 53 998.0
20260504171310 74 238 7.0 13.0 0.00 0.00 0.00 53 998.0
20260504170803 73 271 7.8 18.2 0.00 0.00 0.00 52 998.0
20260504170253 73 259 7.8 18.2 0.00 0.00 0.00 52 998.1
20260504160359 70 233 7.0 15.6 0.00 0.00 0.00 60 999.1
20260504151130 68 219 7.0 13.9 0.00 0.00 0.00 59 999.6
20260504150631 67 232 7.0 13.0 0.00 0.00 0.00 58 999.6
20260504150130 67 219 6.1 11.3 0.00 0.00 0.00 59 999.7
20260504141110 62 223 5.2 11.3 0.00 0.00 0.00 67 1000.2
20260504140831 62 225 4.3 11.3 0.00 0.00 0.00 67 1000.2
20260504140109 62 216 4.3 9.6 0.00 0.00 0.00 68 1000.4
20260504130752 56 211 3.5 7.0 0.00 0.00 0.00 76 1000.8
20260504110323 48 205 2.6 6.1 0.00 0.00 0.00 84 1001.1
20260504100321 47 186 2.6 6.1 0.00 0.00 0.00 84 1001.3
20260504090122 48 208 2.6 5.2 0.00 0.00 0.00 82 1001.3
20260504081526 49 215 3.5 6.1 0.00 0.00 0.00 80 1001.4
20260504081022 49 209 3.5 6.1 0.00 0.00 0.00 81 1001.4
20260504080516 49 215 2.6 6.1 0.00 0.00 0.00 81 1001.4
20260504050736 53 211 3.5 6.1 0.00 0.00 0.00 74 1002.8
20260504050230 53 232 3.5 6.1 0.00 0.00 0.00 73 1002.7
20260504045719 53 219 3.5 7.0 0.00 0.00 0.00 73 1002.7
20260504045215 54 216 2.6 7.0 0.00 0.00 0.00 72 1002.7
20260504044712 54 198 3.5 6.1 0.00 0.00 0.00 72 1002.8
20260504044212 54 226 2.6 6.1 0.00 0.00 0.00 72 1002.8
20260504043711 54 232 2.6 6.1 0.00 0.00 0.00 72 1002.8
20260504043212 54 207 2.6 6.1 0.00 0.00 0.00 72 1002.9
20260504042711 54 219 2.6 6.1 0.00 0.00 0.00 72 1002.9
20260504042435 54 209 2.6 6.1 0.00 0.00 0.00 72 1002.9
20260504041712 54 208 2.6 3.5 0.00 0.00 0.00 72 1003.1
20260504041211 54 235 1.7 4.3 0.00 0.00 0.00 72 1003.1
20260504040711 54 221 1.7 4.3 0.00 0.00 0.00 72 1003.1
20260504040207 55 215 1.7 4.3 0.00 0.00 0.00 72 1003.3
20260504035653 55 196 1.7 4.3 0.00 0.00 0.00 72 1003.3
20260504035145 55 208 2.6 4.3 0.00 0.00 0.00 72 1003.3
20260504034640 55 230 2.6 6.1 0.00 0.00 0.00 72 1003.4
20260504034133 55 212 2.6 6.1 0.00 0.00 0.00 72 1003.4
20260504033627 55 204 2.6 5.2 0.00 0.00 0.00 72 1003.4
20260504033117 55 225 2.6 4.3 0.00 0.00 0.00 71 1003.5
20260504032615 55 241 2.6 4.3 0.00 0.00 0.00 71 1003.5
20260504032109 56 198 2.6 6.1 0.00 0.00 0.00 71 1003.5
20260504031605 56 195 2.6 6.1 0.00 0.00 0.00 71 1003.6
20260504031059 56 211 1.7 4.3 0.00 0.00 0.00 71 1003.6
20260504030548 56 202 1.7 5.2 0.00 0.00 0.00 71 1003.6
20260504030045 56 219 1.7 4.3 0.00 0.00 0.00 70 1003.7
20260504025539 56 211 1.7 3.5 0.00 0.00 0.00 70 1003.7
20260504025034 56 211 1.7 4.3 0.00 0.00 0.00 70 1003.7
20260504024528 56 223 2.6 6.1 0.00 0.00 0.00 70 1003.5
20260504024018 56 184 1.7 6.1 0.00 0.00 0.00 70 1003.5
20260504023515 56 177 1.7 4.3 0.00 0.00 0.00 69 1003.5
20260504023448 57 213 1.7 4.3 0.00 0.00 0.00 69 1003.4
20260504022503 57 186 1.7 4.3 0.00 0.00 0.00 69 1003.4
20260504022441 57 188 1.7 6.1 0.00 0.00 0.00 68 1003.4
20260504021453 57 145 1.7 6.1 0.00 0.00 0.00 68 1003.3
20260504020947 57 219 1.7 4.3 0.00 0.00 0.00 68 1003.3
20260504020435 58 215 1.7 3.5 0.00 0.00 0.00 68 1003.1
20260504015932 58 217 1.7 4.3 0.00 0.00 0.00 67 1003.1
20260504015646 58 193 2.6 4.3 0.00 0.00 0.00 67 1003.1
20260504015143 58 213 2.6 5.2 0.00 0.00 0.00 66 1003.1
20260504014642 58 219 2.6 5.2 0.00 0.00 0.00 66 1003.1
20260504013904 59 203 1.7 5.2 0.00 0.00 0.00 66 1003.1
20260504013404 59 196 1.7 3.5 0.00 0.00 0.00 65 1003.0
20260504012858 59 225 2.6 3.5 0.00 0.00 0.00 65 1003.0
20260504012351 60 232 2.6 5.2 0.00 0.00 0.00 64 1003.0
20260504011846 60 192 1.7 5.2 0.00 0.00 0.00 63 1002.9
20260504011339 60 211 1.7 7.8 0.00 0.00 0.00 63 1002.9
20260504010832 61 196 2.6 7.8 0.00 0.00 0.00 62 1002.9
20260504010323 61 174 1.7 5.2 0.00 0.00 0.00 61 1003.0
20260504010047 61 196 2.6 5.2 0.00 0.00 0.00 61 1003.0
20260504005315 62 217 2.6 6.1 0.00 0.00 0.00 60 1003.0
20260504004809 62 226 3.5 7.0 0.00 0.00 0.00 59 1003.0
20260504004303 62 242 4.3 7.8 0.00 0.00 0.00 59 1003.0
20260504003757 63 195 4.3 9.6 0.00 0.00 0.00 58 1003.0
20260504003515 63 225 4.3 9.6 0.00 0.00 0.00 57 1003.0
20260504002757 64 229 5.2 10.4 0.00 0.00 0.00 56 1003.0
20260504002520 64 192 6.1 13.9 0.00 0.00 0.00 55 1003.0
20260504001757 65 232 7.0 13.9 0.00 0.00 0.00 54 1003.2
20260504001743 65 240 6.1 13.9 0.00 0.00 0.00 54 1003.2
20260504001022 65 212 7.0 13.9 0.00 0.00 0.00 53 1003.2
20260504000259 65 221 7.0 17.4 0.00 0.00 0.00 52 1003.0
20260503235801 65 224 7.0 17.4 0.00 0.00 0.00 52 1003.0
20260503235254 65 238 7.0 17.4 0.00 0.00 0.00 52 1003.0